,,,PA_Meas_PMT16A,,PR_Meas_QMR101_102,,RH_Meas_QMH101,,SR_Meas_QMS101,,TA_Meas_QMH101,,GenWind,,GenWind,
date,time,status,PA,status,PR,status,RH,status,SR,status,TA,status,DirAvg,status,SpdAvg,
2011-09-11, 00:00:04,VALID,1009.13,VALID,0.0,VALID,100.866,VALID,0.106,VALID,25.546,VALID,86.0,VALID,0.278,
2011-09-11, 00:01:04,VALID,1009.158,VALID,0.0,VALID,100.889,VALID,0.0,VALID,25.524,VALID,86.0,VALID,0.407,
2011-09-11, 00:02:04,VALID,1009.134,VALID,0.0,VALID,100.851,VALID,0.0,VALID,25.565,VALID,86.0,VALID,0.354,
2011-09-11, 00:03:04,VALID,1009.113,VALID,0.0,VALID,100.79,VALID,0.0,VALID,25.546,VALID,86.0,VALID,0.227,
2011-09-11, 00:04:04,VALID,1009.125,VALID,0.0,VALID,100.805,VALID,0.106,VALID,25.565,VALID,87.0,VALID,0.413,
2011-09-11, 00:05:04,VALID,1009.1,VALID,0.0,VALID,100.751,VALID,0.106,VALID,25.585,VALID,132.0,VALID,0.653,
2011-09-11, 00:06:04,VALID,1009.039,VALID,0.0,VALID,100.614,VALID,0.0,VALID,25.563,VALID,105.0,VALID,0.804,
2011-09-11, 00:07:04,VALID,1009.062,VALID,0.0,VALID,100.546,VALID,0.0,VALID,25.583,VALID,123.0,VALID,0.277,
2011-09-11, 00:08:04,VALID,1009.041,VALID,0.0,VALID,100.462,VALID,0.0,VALID,25.583,VALID,131.0,VALID,0.723,
2011-09-11, 00:09:04,VALID,1009.044,VALID,0.0,VALID,100.431,VALID,0.0,VALID,25.624,VALID,132.0,VALID,0.545,
2011-09-11, 00:10:04,VALID,1009.035,VALID,0.0,VALID,100.385,VALID,0.0,VALID,25.624,VALID,108.0,VALID,1.246,
2011-09-11, 00:11:04,VALID,1009.087,VALID,0.0,VALID,100.157,VALID,0.106,VALID,25.663,VALID,100.0,VALID,0.873,
2011-09-11, 00:12:04,VALID,1009.109,VALID,0.0,VALID,99.989,VALID,0.0,VALID,25.702,VALID,99.0,VALID,0.597,
2011-09-11, 00:13:04,VALID,1009.145,VALID,0.0,VALID,99.905,VALID,0.106,VALID,25.721,VALID,101.0,VALID,0.832,
2011-09-11, 00:14:04,VALID,1009.156,VALID,0.0,VALID,99.859,VALID,0.0,VALID,25.68,VALID,101.0,VALID,0.592,
2011-09-11, 00:15:04,VALID,1009.137,VALID,0.0,VALID,99.775,VALID,0.0,VALID,25.721,VALID,90.0,VALID,0.654,
2011-09-11, 00:16:04,VALID,1009.111,VALID,0.0,VALID,99.623,VALID,0.0,VALID,25.721,VALID,85.0,VALID,0.754,
2011-09-11, 00:17:04,VALID,1009.098,VALID,0.0,VALID,99.684,VALID,0.0,VALID,25.7,VALID,85.0,VALID,0.464,
2011-09-11, 00:18:04,VALID,1009.068,VALID,0.0,VALID,99.745,VALID,0.106,VALID,25.721,VALID,75.0,VALID,0.516,
2011-09-11, 00:19:04,VALID,1009.044,VALID,0.0,VALID,99.768,VALID,0.106,VALID,25.68,VALID,73.0,VALID,0.545,
2011-09-11, 00:20:04,VALID,1009.045,VALID,0.0,VALID,99.905,VALID,0.106,VALID,25.661,VALID,59.0,VALID,0.638,
2011-09-11, 00:21:04,VALID,1009.009,VALID,0.0,VALID,100.004,VALID,0.0,VALID,25.622,VALID,57.0,VALID,0.557,
2011-09-11, 00:22:04,VALID,1009.015,VALID,0.0,VALID,100.103,VALID,0.106,VALID,25.604,VALID,65.0,VALID,0.659,
2011-09-11, 00:23:04,VALID,1009.019,VALID,0.0,VALID,100.271,VALID,0.0,VALID,25.583,VALID,67.0,VALID,0.517,
2011-09-11, 00:24:04,VALID,1009.019,VALID,0.0,VALID,100.34,VALID,0.0,VALID,25.544,VALID,67.0,VALID,0.575,
2011-09-11, 00:25:04,VALID,1008.997,VALID,0.0,VALID,100.469,VALID,0.106,VALID,25.565,VALID,67.0,VALID,0.205,
2011-09-11, 00:26:04,VALID,1009.006,VALID,0.0,VALID,100.576,VALID,0.0,VALID,25.546,VALID,67.0,VALID,0.154,
2011-09-11, 00:27:04,VALID,1008.992,VALID,0.0,VALID,100.66,VALID,0.0,VALID,25.505,VALID,67.0,VALID,0.382,
2011-09-11, 00:28:04,VALID,1008.988,VALID,0.0,VALID,100.759,VALID,0.0,VALID,25.507,VALID,67.0,VALID,0.5,
2011-09-11, 00:29:04,VALID,1008.966,VALID,0.0,VALID,100.851,VALID,0.0,VALID,25.485,VALID,67.0,VALID,0.67,
2011-09-11, 00:30:04,VALID,1009.008,VALID,0.0,VALID,100.873,VALID,0.0,VALID,25.507,VALID,67.0,VALID,0.477,
2011-09-11, 00:31:04,VALID,1008.991,VALID,0.0,VALID,100.934,VALID,0.0,VALID,25.526,VALID,67.0,VALID,0.53,
2011-09-11, 00:32:04,VALID,1008.995,VALID,0.0,VALID,100.889,VALID,0.0,VALID,25.507,VALID,67.0,VALID,0.371,
2011-09-11, 00:33:04,VALID,1008.968,VALID,0.0,VALID,100.912,VALID,0.0,VALID,25.507,VALID,69.0,VALID,0.429,
2011-09-11, 00:34:04,VALID,1008.95,VALID,0.0,VALID,100.957,VALID,0.0,VALID,25.485,VALID,60.0,VALID,0.59,
2011-09-11, 00:35:04,VALID,1008.922,VALID,0.0,VALID,100.973,VALID,0.106,VALID,25.485,VALID,60.0,VALID,0.451,
2011-09-11, 00:36:04,VALID,1008.94,VALID,0.0,VALID,100.973,VALID,0.0,VALID,25.468,VALID,56.0,VALID,0.857,
2011-09-11, 00:37:04,VALID,1008.897,VALID,0.0,VALID,100.919,VALID,0.0,VALID,25.489,VALID,57.0,VALID,0.762,
2011-09-11, 00:38:04,VALID,1008.883,VALID,0.0,VALID,100.988,VALID,0.0,VALID,25.468,VALID,58.0,VALID,0.597,
2011-09-11, 00:39:04,VALID,1008.867,VALID,0.0,VALID,101.011,VALID,0.0,VALID,25.448,VALID,58.0,VALID,0.475,
2011-09-11, 00:40:04,VALID,1008.849,VALID,0.0,VALID,101.102,VALID,0.0,VALID,25.429,VALID,58.0,VALID,0.459,
2011-09-11, 00:41:04,VALID,1008.837,VALID,0.0,VALID,101.079,VALID,0.0,VALID,25.431,VALID,58.0,VALID,0.46,
2011-09-11, 00:42:04,VALID,1008.832,VALID,0.0,VALID,101.201,VALID,0.0,VALID,25.411,VALID,58.0,VALID,0.423,
2011-09-11, 00:43:04,VALID,1008.838,VALID,0.0,VALID,101.308,VALID,0.0,VALID,25.351,VALID,58.0,VALID,0.323,
2011-09-11, 00:44:04,VALID,1008.842,VALID,0.0,VALID,101.445,VALID,0.0,VALID,25.372,VALID,56.0,VALID,0.667,
2011-09-11, 00:45:04,VALID,1008.823,VALID,0.0,VALID,101.476,VALID,0.0,VALID,25.331,VALID,52.0,VALID,0.727,
2011-09-11, 00:46:04,VALID,1008.808,VALID,0.0,VALID,101.567,VALID,0.0,VALID,25.312,VALID,52.0,VALID,0.341,
2011-09-11, 00:47:04,VALID,1008.805,VALID,0.0,VALID,101.697,VALID,0.0,VALID,25.312,VALID,54.0,VALID,0.477,
2011-09-11, 00:48:04,VALID,1008.795,VALID,0.0,VALID,101.72,VALID,0.0,VALID,25.314,VALID,54.0,VALID,0.493,
2011-09-11, 00:49:04,VALID,1008.777,VALID,0.0,VALID,101.819,VALID,0.0,VALID,25.314,VALID,54.0,VALID,0.287,
2011-09-11, 00:50:04,VALID,1008.773,VALID,0.0,VALID,101.857,VALID,0.106,VALID,25.292,VALID,54.0,VALID,0.21,
2011-09-11, 00:51:04,VALID,1008.765,VALID,0.0,VALID,101.857,VALID,0.106,VALID,25.271,VALID,54.0,VALID,0.192,
2011-09-11, 00:52:04,VALID,1008.725,VALID,0.0,VALID,101.888,VALID,0.106,VALID,25.271,VALID,54.0,VALID,0.332,
2011-09-11, 00:53:04,VALID,1008.719,VALID,0.0,VALID,101.872,VALID,0.106,VALID,25.292,VALID,54.0,VALID,0.396,
2011-09-11, 00:54:04,VALID,1008.684,VALID,0.0,VALID,101.911,VALID,0.106,VALID,25.29,VALID,54.0,VALID,0.307,
2011-09-11, 00:55:04,VALID,1008.665,VALID,0.0,VALID,101.88,VALID,0.106,VALID,25.271,VALID,49.0,VALID,0.593,
2011-09-11, 00:56:04,VALID,1008.653,VALID,0.0,VALID,101.85,VALID,0.106,VALID,25.251,VALID,48.0,VALID,0.281,
2011-09-11, 00:57:04,VALID,1008.681,VALID,0.0,VALID,101.964,VALID,0.0,VALID,25.273,VALID,48.0,VALID,0.417,
2011-09-11, 00:58:04,VALID,1008.671,VALID,0.0,VALID,102.124,VALID,0.106,VALID,25.251,VALID,48.0,VALID,0.099,
2011-09-11, 00:59:04,VALID,1008.657,VALID,0.0,VALID,102.132,VALID,0.0,VALID,25.232,VALID,48.0,VALID,0.525,
2011-09-11, 01:00:04,VALID,1008.667,VALID,0.0,VALID,102.094,VALID,0.106,VALID,25.232,VALID,48.0,VALID,0.336,
2011-09-11, 01:01:04,VALID,1008.644,VALID,0.0,VALID,102.033,VALID,0.0,VALID,25.253,VALID,49.0,VALID,0.539,
2011-09-11, 01:02:04,VALID,1008.615,VALID,0.0,VALID,102.033,VALID,0.106,VALID,25.232,VALID,50.0,VALID,0.306,
2011-09-11, 01:03:04,VALID,1008.587,VALID,0.0,VALID,101.987,VALID,0.106,VALID,25.273,VALID,50.0,VALID,0.183,
2011-09-11, 01:04:04,VALID,1008.553,VALID,0.0,VALID,102.002,VALID,0.0,VALID,25.273,VALID,50.0,VALID,0.19,
2011-09-11, 01:05:04,VALID,1008.552,VALID,0.0,VALID,102.002,VALID,0.106,VALID,25.232,VALID,50.0,VALID,0.184,
2011-09-11, 01:06:04,VALID,1008.532,VALID,0.0,VALID,102.025,VALID,0.106,VALID,25.251,VALID,50.0,VALID,0.171,
2011-09-11, 01:07:04,VALID,1008.486,VALID,0.0,VALID,102.04,VALID,0.0,VALID,25.253,VALID,50.0,VALID,0.0,
2011-09-11, 01:08:04,VALID,1008.454,VALID,0.0,VALID,102.116,VALID,0.0,VALID,25.253,VALID,50.0,VALID,0.136,
2011-09-11, 01:09:04,VALID,1008.447,VALID,0.0,VALID,102.193,VALID,0.106,VALID,25.232,VALID,50.0,VALID,0.212,
2011-09-11, 01:10:04,VALID,1008.448,VALID,0.0,VALID,102.254,VALID,0.0,VALID,25.212,VALID,50.0,VALID,0.193,
2011-09-11, 01:11:04,VALID,1008.43,VALID,0.0,VALID,102.299,VALID,0.106,VALID,25.214,VALID,50.0,VALID,0.196,
2011-09-11, 01:12:04,VALID,1008.436,VALID,0.0,VALID,102.406,VALID,0.0,VALID,25.193,VALID,50.0,VALID,0.256,
2011-09-11, 01:13:04,VALID,1008.426,VALID,0.0,VALID,102.429,VALID,0.0,VALID,25.195,VALID,50.0,VALID,0.203,
2011-09-11, 01:14:04,VALID,1008.418,VALID,0.0,VALID,102.467,VALID,0.106,VALID,25.175,VALID,50.0,VALID,0.0,
2011-09-11, 01:15:04,VALID,1008.408,VALID,0.0,VALID,102.551,VALID,0.106,VALID,25.175,VALID,50.0,VALID,0.0,
2011-09-11, 01:16:04,VALID,1008.423,VALID,0.0,VALID,102.559,VALID,0.106,VALID,25.175,VALID,50.0,VALID,0.0,
2011-09-11, 01:17:04,VALID,1008.433,VALID,0.0,VALID,102.589,VALID,0.0,VALID,25.154,VALID,50.0,VALID,0.118,
2011-09-11, 01:18:04,VALID,1008.436,VALID,0.0,VALID,102.635,VALID,0.106,VALID,25.154,VALID,55.0,VALID,0.34,
2011-09-11, 01:19:04,VALID,1008.431,VALID,0.0,VALID,102.589,VALID,0.0,VALID,25.175,VALID,78.0,VALID,0.584,
2011-09-11, 01:20:04,VALID,1008.413,VALID,0.0,VALID,102.521,VALID,0.0,VALID,25.154,VALID,95.0,VALID,0.635,
2011-09-11, 01:21:04,VALID,1008.399,VALID,0.0,VALID,102.36,VALID,0.0,VALID,25.193,VALID,108.0,VALID,1.107,
2011-09-11, 01:22:04,VALID,1008.401,VALID,0.0,VALID,102.116,VALID,0.0,VALID,25.234,VALID,118.0,VALID,0.694,
2011-09-11, 01:23:04,VALID,1008.359,VALID,0.0,VALID,101.949,VALID,0.0,VALID,25.273,VALID,117.0,VALID,0.707,
2011-09-11, 01:24:04,VALID,1008.373,VALID,0.0,VALID,101.888,VALID,0.0,VALID,25.292,VALID,117.0,VALID,0.793,
2011-09-11, 01:25:04,VALID,1008.368,VALID,0.0,VALID,101.789,VALID,0.0,VALID,25.271,VALID,128.0,VALID,0.795,
2011-09-11, 01:26:04,VALID,1008.327,VALID,0.0,VALID,101.674,VALID,0.0,VALID,25.292,VALID,124.0,VALID,0.801,
2011-09-11, 01:27:04,VALID,1008.321,VALID,0.0,VALID,101.659,VALID,0.0,VALID,25.273,VALID,122.0,VALID,0.459,
2011-09-11, 01:28:04,VALID,1008.299,VALID,0.0,VALID,101.705,VALID,0.0,VALID,25.253,VALID,122.0,VALID,0.561,
2011-09-11, 01:29:04,VALID,1008.25,VALID,0.0,VALID,101.758,VALID,0.0,VALID,25.234,VALID,122.0,VALID,0.559,
2011-09-11, 01:30:04,VALID,1008.209,VALID,0.0,VALID,101.85,VALID,0.0,VALID,25.214,VALID,128.0,VALID,0.401,
2011-09-11, 01:31:04,VALID,1008.207,VALID,0.0,VALID,101.979,VALID,0.0,VALID,25.214,VALID,128.0,VALID,0.29,
2011-09-11, 01:32:04,VALID,1008.187,VALID,0.0,VALID,102.048,VALID,0.0,VALID,25.173,VALID,128.0,VALID,0.339,
2011-09-11, 01:33:04,VALID,1008.156,VALID,0.0,VALID,102.124,VALID,0.0,VALID,25.173,VALID,117.0,VALID,0.906,
2011-09-11, 01:34:04,VALID,1008.155,VALID,0.0,VALID,102.063,VALID,0.0,VALID,25.175,VALID,109.0,VALID,0.796,
2011-09-11, 01:35:04,VALID,1008.137,VALID,0.0,VALID,102.063,VALID,0.0,VALID,25.175,VALID,108.0,VALID,0.666,
2011-09-11, 01:36:04,VALID,1008.124,VALID,0.0,VALID,101.987,VALID,0.0,VALID,25.154,VALID,123.0,VALID,0.916,
2011-09-11, 01:37:04,VALID,1008.141,VALID,0.0,VALID,101.933,VALID,0.0,VALID,25.195,VALID,111.0,VALID,1.043,
2011-09-11, 01:38:04,VALID,1008.132,VALID,0.0,VALID,101.903,VALID,0.0,VALID,25.195,VALID,119.0,VALID,0.979,
2011-09-11, 01:39:04,VALID,1008.126,VALID,0.0,VALID,101.857,VALID,0.0,VALID,25.195,VALID,120.0,VALID,1.127,
2011-09-11, 01:40:04,VALID,1008.131,VALID,0.0,VALID,101.865,VALID,0.0,VALID,25.214,VALID,114.0,VALID,1.174,
2011-09-11, 01:41:04,VALID,1008.112,VALID,0.0,VALID,101.85,VALID,0.0,VALID,25.175,VALID,111.0,VALID,1.098,
2011-09-11, 01:42:04,VALID,1008.086,VALID,0.0,VALID,101.827,VALID,0.0,VALID,25.195,VALID,113.0,VALID,0.923,
2011-09-11, 01:43:04,VALID,1008.091,VALID,0.0,VALID,101.804,VALID,0.0,VALID,25.175,VALID,110.0,VALID,0.857,
2011-09-11, 01:44:04,VALID,1008.037,VALID,0.0,VALID,101.834,VALID,0.0,VALID,25.195,VALID,111.0,VALID,0.604,
2011-09-11, 01:45:04,VALID,1008.061,VALID,0.0,VALID,101.834,VALID,0.0,VALID,25.195,VALID,111.0,VALID,0.691,
2011-09-11, 01:46:04,VALID,1008.048,VALID,0.0,VALID,101.857,VALID,0.0,VALID,25.175,VALID,137.0,VALID,0.773,
2011-09-11, 01:47:04,VALID,1008.042,VALID,0.0,VALID,101.834,VALID,0.0,VALID,25.175,VALID,153.0,VALID,0.559,
2011-09-11, 01:48:04,VALID,1008.039,VALID,0.0,VALID,101.872,VALID,0.0,VALID,25.156,VALID,143.0,VALID,0.666,
2011-09-11, 01:49:04,VALID,1008.042,VALID,0.0,VALID,101.827,VALID,0.0,VALID,25.156,VALID,104.0,VALID,0.669,
2011-09-11, 01:50:04,VALID,1008.025,VALID,0.0,VALID,101.804,VALID,0.0,VALID,25.156,VALID,104.0,VALID,0.986,
2011-09-11, 01:51:04,VALID,1007.998,VALID,0.0,VALID,101.697,VALID,0.0,VALID,25.134,VALID,111.0,VALID,1.508,
2011-09-11, 01:52:04,VALID,1008.006,VALID,0.0,VALID,101.583,VALID,0.0,VALID,25.175,VALID,110.0,VALID,0.961,
2011-09-11, 01:53:04,VALID,1008.002,VALID,0.0,VALID,101.453,VALID,0.0,VALID,25.195,VALID,118.0,VALID,1.094,
2011-09-11, 01:54:04,VALID,1008.016,VALID,0.0,VALID,101.4,VALID,0.106,VALID,25.195,VALID,118.0,VALID,1.108,
2011-09-11, 01:55:04,VALID,1007.975,VALID,0.0,VALID,101.392,VALID,0.0,VALID,25.175,VALID,117.0,VALID,1.08,
2011-09-11, 01:56:04,VALID,1007.969,VALID,0.0,VALID,101.369,VALID,0.0,VALID,25.175,VALID,137.0,VALID,1.017,
2011-09-11, 01:57:04,VALID,1007.956,VALID,0.0,VALID,101.392,VALID,0.0,VALID,25.134,VALID,101.0,VALID,1.103,
2011-09-11, 01:58:04,VALID,1007.924,VALID,0.0,VALID,101.384,VALID,0.0,VALID,25.156,VALID,116.0,VALID,0.874,
2011-09-11, 01:59:04,VALID,1007.903,VALID,0.0,VALID,101.377,VALID,0.0,VALID,25.175,VALID,111.0,VALID,1.071,
2011-09-11, 02:00:04,VALID,1007.885,VALID,0.0,VALID,101.423,VALID,0.0,VALID,25.156,VALID,106.0,VALID,0.878,
2011-09-11, 02:01:04,VALID,1007.858,VALID,0.0,VALID,101.491,VALID,0.0,VALID,25.136,VALID,111.0,VALID,0.733,
2011-09-11, 02:02:04,VALID,1007.844,VALID,0.0,VALID,101.506,VALID,0.0,VALID,25.136,VALID,144.0,VALID,1.441,
2011-09-11, 02:03:04,VALID,1007.845,VALID,0.0,VALID,101.506,VALID,0.0,VALID,25.117,VALID,140.0,VALID,0.994,
2011-09-11, 02:04:04,VALID,1007.806,VALID,0.0,VALID,101.529,VALID,0.0,VALID,25.136,VALID,124.0,VALID,0.578,
2011-09-11, 02:05:04,VALID,1007.778,VALID,0.0,VALID,101.56,VALID,0.0,VALID,25.097,VALID,127.0,VALID,0.902,
2011-09-11, 02:06:04,VALID,1007.729,VALID,0.0,VALID,101.598,VALID,0.0,VALID,25.078,VALID,147.0,VALID,0.765,
2011-09-11, 02:07:04,VALID,1007.702,VALID,0.0,VALID,101.476,VALID,0.0,VALID,25.097,VALID,146.0,VALID,1.252,
2011-09-11, 02:08:04,VALID,1007.696,VALID,0.0,VALID,101.415,VALID,0.0,VALID,25.097,VALID,148.0,VALID,0.706,
2011-09-11, 02:09:04,VALID,1007.648,VALID,0.0,VALID,101.468,VALID,0.0,VALID,25.097,VALID,135.0,VALID,0.636,
2011-09-11, 02:10:04,VALID,1007.634,VALID,0.0,VALID,101.484,VALID,0.0,VALID,25.078,VALID,146.0,VALID,0.863,
2011-09-11, 02:11:04,VALID,1007.628,VALID,0.0,VALID,101.491,VALID,0.0,VALID,25.078,VALID,144.0,VALID,0.744,
2011-09-11, 02:12:04,VALID,1007.585,VALID,0.0,VALID,101.476,VALID,0.0,VALID,25.078,VALID,158.0,VALID,0.485,
2011-09-11, 02:13:04,VALID,1007.58,VALID,0.0,VALID,101.445,VALID,0.0,VALID,25.056,VALID,175.0,VALID,1.032,
2011-09-11, 02:14:04,VALID,1007.581,VALID,0.0,VALID,101.43,VALID,0.0,VALID,25.097,VALID,129.0,VALID,1.367,
2011-09-11, 02:15:04,VALID,1007.572,VALID,0.0,VALID,101.438,VALID,0.0,VALID,25.097,VALID,150.0,VALID,0.447,
2011-09-11, 02:16:04,VALID,1007.6,VALID,0.0,VALID,101.4,VALID,0.0,VALID,25.078,VALID,165.0,VALID,1.121,
2011-09-11, 02:17:04,VALID,1007.608,VALID,0.0,VALID,101.346,VALID,0.0,VALID,25.097,VALID,157.0,VALID,1.491,
2011-09-11, 02:18:04,VALID,1007.602,VALID,0.0,VALID,101.308,VALID,0.0,VALID,25.076,VALID,142.0,VALID,1.092,
2011-09-11, 02:19:04,VALID,1007.595,VALID,0.0,VALID,101.27,VALID,0.0,VALID,25.097,VALID,153.0,VALID,1.137,
2011-09-11, 02:20:04,VALID,1007.554,VALID,0.0,VALID,101.24,VALID,0.0,VALID,25.078,VALID,158.0,VALID,1.46,
2011-09-11, 02:21:04,VALID,1007.536,VALID,0.0,VALID,101.209,VALID,0.0,VALID,25.078,VALID,155.0,VALID,0.92,
2011-09-11, 02:22:04,VALID,1007.496,VALID,0.0,VALID,101.102,VALID,0.0,VALID,25.117,VALID,160.0,VALID,1.168,
2011-09-11, 02:23:04,VALID,1007.459,VALID,0.0,VALID,101.087,VALID,0.0,VALID,25.117,VALID,165.0,VALID,0.771,
2011-09-11, 02:24:04,VALID,1007.441,VALID,0.0,VALID,100.98,VALID,0.0,VALID,25.117,VALID,167.0,VALID,1.185,
2011-09-11, 02:25:04,VALID,1007.43,VALID,0.0,VALID,100.957,VALID,0.0,VALID,25.117,VALID,134.0,VALID,0.967,
2011-09-11, 02:26:04,VALID,1007.427,VALID,0.0,VALID,100.95,VALID,0.0,VALID,25.138,VALID,171.0,VALID,1.159,
2011-09-11, 02:27:04,VALID,1007.425,VALID,0.0,VALID,100.858,VALID,0.0,VALID,25.117,VALID,146.0,VALID,1.752,
2011-09-11, 02:28:04,VALID,1007.423,VALID,0.0,VALID,100.79,VALID,0.0,VALID,25.136,VALID,148.0,VALID,1.119,
2011-09-11, 02:29:04,VALID,1007.411,VALID,0.0,VALID,100.782,VALID,0.0,VALID,25.138,VALID,157.0,VALID,0.875,
2011-09-11, 02:30:04,VALID,1007.396,VALID,0.0,VALID,100.851,VALID,0.0,VALID,25.117,VALID,159.0,VALID,0.66,
2011-09-11, 02:31:04,VALID,1007.376,VALID,0.0,VALID,100.95,VALID,0.0,VALID,25.117,VALID,156.0,VALID,0.637,
2011-09-11, 02:32:04,VALID,1007.36,VALID,0.0,VALID,101.049,VALID,0.0,VALID,25.117,VALID,125.0,VALID,0.93,
2011-09-11, 02:33:04,VALID,1007.365,VALID,0.0,VALID,101.125,VALID,0.0,VALID,25.119,VALID,155.0,VALID,0.843,
2011-09-11, 02:34:04,VALID,1007.316,VALID,0.0,VALID,101.171,VALID,0.0,VALID,25.097,VALID,160.0,VALID,0.589,
2011-09-11, 02:35:04,VALID,1007.325,VALID,0.0,VALID,101.232,VALID,0.0,VALID,25.078,VALID,160.0,VALID,0.693,
2011-09-11, 02:36:04,VALID,1007.307,VALID,0.0,VALID,101.27,VALID,0.0,VALID,25.097,VALID,147.0,VALID,1.108,
2011-09-11, 02:37:04,VALID,1007.292,VALID,0.0,VALID,101.27,VALID,0.0,VALID,25.097,VALID,136.0,VALID,0.389,
2011-09-11, 02:38:04,VALID,1007.318,VALID,0.0,VALID,101.255,VALID,0.0,VALID,25.099,VALID,122.0,VALID,0.79,
2011-09-11, 02:39:04,VALID,1007.338,VALID,0.0,VALID,101.278,VALID,0.0,VALID,25.097,VALID,127.0,VALID,0.818,
2011-09-11, 02:40:04,VALID,1007.358,VALID,0.0,VALID,101.232,VALID,0.0,VALID,25.078,VALID,134.0,VALID,1.707,
2011-09-11, 02:41:04,VALID,1007.33,VALID,0.0,VALID,101.087,VALID,0.0,VALID,25.097,VALID,114.0,VALID,1.638,
2011-09-11, 02:42:04,VALID,1007.286,VALID,0.0,VALID,100.965,VALID,0.0,VALID,25.117,VALID,149.0,VALID,0.935,
2011-09-11, 02:43:04,VALID,1007.301,VALID,0.0,VALID,100.957,VALID,0.0,VALID,25.097,VALID,145.0,VALID,0.379,
2011-09-11, 02:44:04,VALID,1007.28,VALID,0.0,VALID,101.072,VALID,0.106,VALID,25.097,VALID,161.0,VALID,1.197,
2011-09-11, 02:45:04,VALID,1007.271,VALID,0.0,VALID,101.003,VALID,0.0,VALID,25.078,VALID,168.0,VALID,1.024,
2011-09-11, 02:46:04,VALID,1007.255,VALID,0.0,VALID,100.934,VALID,0.0,VALID,25.078,VALID,157.0,VALID,1.515,
2011-09-11, 02:47:04,VALID,1007.226,VALID,0.0,VALID,100.957,VALID,0.0,VALID,25.097,VALID,142.0,VALID,0.98,
2011-09-11, 02:48:04,VALID,1007.242,VALID,0.0,VALID,100.995,VALID,0.0,VALID,25.078,VALID,140.0,VALID,1.174,
2011-09-11, 02:49:04,VALID,1007.24,VALID,0.0,VALID,101.079,VALID,0.0,VALID,25.058,VALID,160.0,VALID,0.655,
2011-09-11, 02:50:04,VALID,1007.247,VALID,0.0,VALID,101.117,VALID,0.106,VALID,25.037,VALID,149.0,VALID,0.839,
2011-09-11, 02:51:04,VALID,1007.225,VALID,0.0,VALID,101.163,VALID,0.106,VALID,25.056,VALID,136.0,VALID,0.998,
2011-09-11, 02:52:04,VALID,1007.208,VALID,0.0,VALID,101.11,VALID,0.106,VALID,25.037,VALID,129.0,VALID,1.03,
2011-09-11, 02:53:04,VALID,1007.214,VALID,0.0,VALID,101.171,VALID,0.0,VALID,25.056,VALID,144.0,VALID,1.042,
2011-09-11, 02:54:04,VALID,1007.169,VALID,0.0,VALID,101.102,VALID,0.0,VALID,25.037,VALID,150.0,VALID,1.157,
2011-09-11, 02:55:04,VALID,1007.2,VALID,0.0,VALID,101.163,VALID,0.106,VALID,25.037,VALID,146.0,VALID,1.225,
2011-09-11, 02:56:04,VALID,1007.168,VALID,0.0,VALID,101.178,VALID,0.106,VALID,25.039,VALID,181.0,VALID,1.192,
2011-09-11, 02:57:04,VALID,1007.147,VALID,0.0,VALID,101.14,VALID,0.106,VALID,25.037,VALID,163.0,VALID,1.139,
2011-09-11, 02:58:04,VALID,1007.139,VALID,0.0,VALID,101.156,VALID,0.106,VALID,25.037,VALID,163.0,VALID,0.449,
2011-09-11, 02:59:04,VALID,1007.143,VALID,0.0,VALID,101.133,VALID,0.106,VALID,25.037,VALID,148.0,VALID,0.806,
2011-09-11, 03:00:04,VALID,1007.143,VALID,0.0,VALID,101.117,VALID,0.106,VALID,25.037,VALID,161.0,VALID,1.32,
2011-09-11, 03:01:04,VALID,1007.129,VALID,0.0,VALID,101.163,VALID,0.106,VALID,25.037,VALID,124.0,VALID,1.062,
2011-09-11, 03:02:04,VALID,1007.087,VALID,0.0,VALID,101.156,VALID,0.106,VALID,25.037,VALID,155.0,VALID,0.74,
2011-09-11, 03:03:04,VALID,1007.117,VALID,0.0,VALID,101.133,VALID,0.106,VALID,25.037,VALID,147.0,VALID,0.791,
2011-09-11, 03:04:04,VALID,1007.09,VALID,0.0,VALID,101.171,VALID,0.106,VALID,25.037,VALID,151.0,VALID,0.887,
2011-09-11, 03:05:04,VALID,1007.086,VALID,0.0,VALID,101.11,VALID,0.106,VALID,25.037,VALID,161.0,VALID,0.896,
2011-09-11, 03:06:04,VALID,1007.106,VALID,0.0,VALID,101.095,VALID,0.106,VALID,25.037,VALID,137.0,VALID,1.271,
2011-09-11, 03:07:04,VALID,1007.113,VALID,0.0,VALID,101.056,VALID,0.106,VALID,25.078,VALID,150.0,VALID,1.016,
2011-09-11, 03:08:04,VALID,1007.096,VALID,0.0,VALID,101.064,VALID,0.106,VALID,25.056,VALID,142.0,VALID,0.96,
2011-09-11, 03:09:04,VALID,1007.065,VALID,0.0,VALID,100.995,VALID,0.106,VALID,25.056,VALID,136.0,VALID,0.992,
2011-09-11, 03:10:04,VALID,1007.073,VALID,0.0,VALID,100.988,VALID,0.106,VALID,25.097,VALID,152.0,VALID,1.152,
2011-09-11, 03:11:04,VALID,1007.085,VALID,0.0,VALID,101.018,VALID,0.106,VALID,25.056,VALID,125.0,VALID,1.023,
2011-09-11, 03:12:04,VALID,1007.062,VALID,0.0,VALID,100.957,VALID,0.106,VALID,25.056,VALID,147.0,VALID,0.779,
2011-09-11, 03:13:04,VALID,1007.074,VALID,0.0,VALID,100.995,VALID,0.106,VALID,25.056,VALID,111.0,VALID,0.858,
2011-09-11, 03:14:04,VALID,1007.052,VALID,0.0,VALID,100.912,VALID,0.106,VALID,25.056,VALID,128.0,VALID,1.4,
2011-09-11, 03:15:04,VALID,1007.059,VALID,0.0,VALID,100.896,VALID,0.106,VALID,25.076,VALID,130.0,VALID,1.421,
2011-09-11, 03:16:04,VALID,1007.027,VALID,0.0,VALID,100.889,VALID,0.106,VALID,25.056,VALID,137.0,VALID,1.221,
2011-09-11, 03:17:04,VALID,1006.979,VALID,0.0,VALID,101.011,VALID,0.0,VALID,25.037,VALID,116.0,VALID,0.752,
2011-09-11, 03:18:04,VALID,1006.958,VALID,0.0,VALID,101.087,VALID,0.0,VALID,25.019,VALID,139.0,VALID,0.977,
2011-09-11, 03:19:04,VALID,1006.927,VALID,0.0,VALID,101.14,VALID,0.106,VALID,24.998,VALID,106.0,VALID,1.002,
2011-09-11, 03:20:04,VALID,1006.924,VALID,0.0,VALID,101.224,VALID,0.0,VALID,25.0,VALID,131.0,VALID,1.24,
2011-09-11, 03:21:04,VALID,1006.879,VALID,0.0,VALID,101.293,VALID,0.106,VALID,24.98,VALID,129.0,VALID,0.941,
2011-09-11, 03:22:04,VALID,1006.855,VALID,0.0,VALID,101.331,VALID,0.106,VALID,24.959,VALID,142.0,VALID,1.117,
2011-09-11, 03:23:04,VALID,1006.823,VALID,0.0,VALID,101.407,VALID,0.0,VALID,24.939,VALID,133.0,VALID,1.181,
2011-09-11, 03:24:04,VALID,1006.854,VALID,0.0,VALID,101.4,VALID,0.106,VALID,24.939,VALID,136.0,VALID,1.125,
2011-09-11, 03:25:04,VALID,1006.835,VALID,0.0,VALID,101.438,VALID,0.0,VALID,24.961,VALID,138.0,VALID,1.311,
2011-09-11, 03:26:04,VALID,1006.849,VALID,0.0,VALID,101.43,VALID,0.106,VALID,24.941,VALID,139.0,VALID,1.23,
2011-09-11, 03:27:04,VALID,1006.814,VALID,0.0,VALID,101.438,VALID,0.0,VALID,24.961,VALID,140.0,VALID,1.599,
2011-09-11, 03:28:04,VALID,1006.835,VALID,0.0,VALID,101.43,VALID,0.106,VALID,24.939,VALID,156.0,VALID,1.412,
2011-09-11, 03:29:04,VALID,1006.84,VALID,0.0,VALID,101.484,VALID,0.0,VALID,24.941,VALID,125.0,VALID,1.442,
2011-09-11, 03:30:04,VALID,1006.843,VALID,0.0,VALID,101.56,VALID,0.0,VALID,24.92,VALID,136.0,VALID,1.634,
2011-09-11, 03:31:04,VALID,1006.869,VALID,0.0,VALID,101.567,VALID,0.106,VALID,24.941,VALID,132.0,VALID,0.933,
2011-09-11, 03:32:04,VALID,1006.873,VALID,0.0,VALID,101.567,VALID,0.106,VALID,24.961,VALID,156.0,VALID,1.12,
2011-09-11, 03:33:04,VALID,1006.895,VALID,0.0,VALID,101.552,VALID,0.106,VALID,24.961,VALID,107.0,VALID,2.286,
2011-09-11, 03:34:04,VALID,1006.912,VALID,0.0,VALID,101.514,VALID,0.106,VALID,24.959,VALID,135.0,VALID,1.186,
2011-09-11, 03:35:04,VALID,1006.925,VALID,0.0,VALID,101.499,VALID,0.0,VALID,24.982,VALID,131.0,VALID,1.351,
2011-09-11, 03:36:04,VALID,1006.916,VALID,0.0,VALID,101.476,VALID,0.0,VALID,24.982,VALID,116.0,VALID,0.745,
2011-09-11, 03:37:04,VALID,1006.897,VALID,0.0,VALID,101.461,VALID,0.0,VALID,24.961,VALID,114.0,VALID,1.216,